Theta_e
350 352 352 354 356 356 357 356 354 354 353 353 352 352 354 353 351 351 353 350 344 345 347 347 347 345 345 346 343 345 349 351 355 355 352 351 352 354 354 352 351 351
350 354 354 355 356 354 355 356 356 355 353 352 353 354 354 354 352 350 352 350 346 346 347 346 347 345 346 350 347 344 346 345 349 356 353 349 352 355 354 353 352 350
351 354 353 355 355 352 354 356 355 355 353 353 355 355 354 354 354 350 349 350 350 351 349 345 347 346 346 350 347 345 350 346 345 356 358 350 351 356 356 353 353 352
351 353 353 355 354 352 353 355 354 353 354 355 355 354 354 355 355 353 349 347 348 353 352 347 348 348 345 346 344 346 352 350 346 352 355 349 348 354 355 355 355 354
352 353 353 354 354 354 353 354 354 353 353 355 355 354 354 355 356 355 352 348 346 350 351 348 347 349 347 345 343 346 351 353 351 349 347 345 348 352 354 355 355 355
353 353 353 353 354 355 354 354 354 353 352 354 354 354 355 354 354 355 355 353 350 351 353 353 351 352 352 348 344 345 349 351 352 350 347 345 349 354 356 356 356 355
354 353 353 352 353 353 353 354 355 354 353 353 353 353 354 354 353 355 356 355 354 354 355 355 354 354 352 349 347 346 346 348 350 350 349 346 348 352 354 357 356 350
352 352 352 352 352 351 352 352 353 354 353 353 353 353 354 355 354 355 355 355 355 355 355 356 356 353 350 351 352 349 346 350 352 349 346 346 348 347 347 353 353 347
351 351 351 351 351 350 350 349 350 352 353 353 353 353 353 354 354 355 356 355 355 355 355 356 356 352 351 354 356 352 348 352 355 353 350 350 352 349 349 352 351 348
351 350 349 349 348 348 349 349 348 349 351 352 353 352 352 353 353 355 356 354 354 356 354 352 353 351 351 355 356 353 350 351 355 357 355 354 355 355 355 355 354 353
351 350 349 348 348 347 346 348 347 347 348 350 351 351 351 353 353 355 357 352 350 355 355 351 350 350 350 353 356 355 352 352 354 355 354 354 354 354 355 355 354 354
352 351 349 348 348 347 346 346 346 346 347 348 350 349 349 351 352 354 356 353 350 354 357 353 349 350 351 351 354 356 355 354 355 354 354 354 354 354 354 354 354 354
353 353 351 349 348 347 346 346 346 345 346 347 348 349 348 349 351 353 355 355 352 352 357 356 350 350 352 349 352 356 356 355 355 355 355 355 354 355 355 355 355 354
354 354 353 351 349 348 347 347 347 347 346 346 347 348 348 347 348 351 354 356 356 354 355 357 353 350 351 350 351 355 356 356 356 355 355 356 355 355 354 355 355 354
356 355 353 352 351 351 350 349 348 348 348 348 348 348 349 348 347 348 351 353 356 355 355 356 355 352 352 353 353 353 354 355 355 355 355 356 357 356 355 355 354 354
354 352 349 348 348 350 351 351 351 351 350 350 351 350 350 349 348 347 349 351 353 355 354 354 355 353 351 353 353 351 352 354 354 356 356 356 357 357 356 355 354 352
351 351 348 345 345 347 348 349 351 353 353 352 352 352 352 352 351 348 347 348 351 353 353 352 353 351 350 352 352 350 352 355 356 356 357 357 356 356 355 354 353 352
348 350 350 347 346 346 346 347 348 350 353 354 354 353 353 353 352 351 349 349 349 351 351 351 350 350 349 351 351 349 349 351 353 355 356 355 355 355 354 354 353 351
346 347 349 348 347 347 347 347 346 346 349 353 355 356 356 355 353 352 351 351 349 350 351 350 349 348 349 350 351 350 347 346 348 352 353 354 355 355 354 354 354 353
348 347 348 348 348 348 348 349 348 348 347 349 352 354 355 355 354 353 353 352 351 350 351 350 349 349 349 349 350 351 348 345 345 348 351 352 354 355 355 355 354 354
349 348 348 348 348 348 348 347 347 347 347 347 349 350 351 352 350 349 351 352 352 351 349 349 351 350 349 348 349 350 350 346 344 346 349 350 351 353 355 354 353 354
350 350 350 349 349 348 347 345 344 345 345 346 346 347 349 350 349 348 350 349 349 349 348 348 350 351 350 349 350 351 349 347 345 345 347 348 349 351 353 355 355 356
349 349 350 350 350 349 348 347 346 346 346 346 346 346 347 349 349 349 349 347 346 347 347 347 347 349 349 349 350 350 348 346 346 346 348 349 350 351 354 356 354 353
347 348 348 349 350 350 350 350 349 349 348 346 345 345 346 347 349 350 349 347 347 346 345 344 344 346 347 347 347 348 347 346 345 346 350 353 352 352 356 356 353 351
344 345 346 346 347 348 349 350 350 350 349 348 347 346 346 347 349 350 350 350 350 348 346 345 343 344 345 345 345 346 346 346 347 348 351 353 352 351 352 353 352 352
339 341 343 343 344 346 346 347 348 349 349 349 348 348 347 348 348 349 350 351 351 350 348 347 345 343 344 345 346 347 348 349 349 349 350 351 353 351 351 350 351 351
Wind_Speed
11 10 9 9 8 8 8 8 7 7 7 7 6 7 8 8 9 10 10 10 10 10 10 9 9 9 8 7 8 8 7 7 6 5 6 5 4 4 4 4 4 4
12 11 11 10 10 11 10 9 8 7 8 9 7 7 7 8 9 10 10 10 9 9 10 9 9 9 8 7 8 9 8 8 7 5 6 6 5 4 5 4 5 5
14 13 12 11 11 11 10 9 9 8 7 8 8 7 6 7 8 9 10 10 9 8 9 9 9 9 9 9 10 9 7 9 8 5 7 8 6 5 5 5 5 5
14 13 12 12 10 9 9 9 9 8 8 7 8 7 7 7 8 9 9 10 10 10 10 10 9 10 10 11 10 9 8 9 8 8 9 9 6 6 5 5 5 5
15 14 13 13 11 10 10 10 9 8 8 8 8 8 8 9 9 9 9 9 10 11 10 10 10 10 10 10 10 10 9 8 8 9 9 7 6 6 5 6 6 5
14 15 14 14 13 12 11 11 10 10 9 9 9 9 9 9 9 9 9 9 9 9 9 10 10 10 10 10 10 11 10 9 9 9 8 7 7 6 5 6 7 7
14 15 15 14 13 13 13 12 12 11 10 11 11 10 9 9 9 9 10 10 9 9 10 10 10 10 10 10 10 11 10 10 10 10 9 8 7 7 7 6 8 9
14 14 14 15 14 14 14 14 13 13 12 12 11 11 11 10 10 10 10 10 10 10 10 10 11 12 10 9 9 10 10 9 10 10 9 8 8 9 8 8 9 9
14 14 14 15 15 15 15 15 15 14 14 13 12 12 12 11 11 10 11 11 10 11 11 11 12 12 10 10 10 10 9 9 9 9 9 8 8 8 8 8 9 9
14 15 15 15 16 16 15 16 15 15 14 14 14 13 12 12 12 11 12 13 11 11 13 12 12 12 10 11 12 11 10 10 10 10 9 9 8 8 8 8 9 9
14 14 16 16 16 16 16 16 16 15 15 15 15 14 13 12 12 12 13 15 13 12 12 12 12 12 11 11 12 11 10 10 10 11 11 10 9 9 9 9 9 9
15 15 15 16 16 16 16 16 16 16 16 16 15 15 14 13 13 13 13 15 13 12 12 12 12 12 12 12 12 11 10 10 10 10 10 9 9 9 10 9 9 9
18 16 15 16 16 17 16 16 16 16 16 16 15 15 15 15 14 13 13 14 13 13 13 13 13 13 13 13 12 11 11 10 10 10 9 10 10 10 9 9 9 9
17 17 17 16 16 16 17 16 15 16 16 15 15 15 15 16 15 14 14 13 13 13 13 13 14 13 13 14 13 12 12 11 10 10 10 10 10 10 10 10 10 10
15 16 18 18 18 17 17 17 16 15 15 15 15 15 15 15 15 15 15 14 14 14 14 14 14 14 14 14 13 12 12 11 11 11 11 10 10 10 10 11 11 11
17 19 20 21 21 20 19 18 17 15 15 15 15 15 15 15 15 15 15 15 15 15 15 15 15 15 14 15 14 13 12 11 11 11 11 11 11 11 11 11 11 12
19 20 21 22 23 23 22 20 19 17 16 15 16 16 15 15 15 15 16 16 15 15 16 15 15 15 15 16 17 15 13 12 11 11 12 12 12 12 12 11 12 11
23 22 21 21 22 23 24 23 22 20 18 16 16 16 16 16 16 16 17 16 15 16 16 16 16 17 16 17 18 17 16 15 12 11 12 12 12 12 12 12 12 12
29 27 24 22 21 22 24 24 23 22 21 19 16 14 14 15 16 17 17 17 17 16 15 15 17 18 17 17 18 18 18 18 16 13 12 12 12 12 12 13 13 12
25 26 25 25 23 23 24 24 23 22 22 22 20 17 17 17 17 16 16 16 17 17 16 17 18 18 18 20 20 18 18 19 19 16 13 13 13 12 13 13 13 13
21 21 23 26 27 26 26 27 27 25 23 22 22 21 21 21 20 19 17 16 17 17 15 16 16 16 18 20 21 19 18 18 19 18 16 15 15 15 15 15 14 13
21 21 22 23 25 27 27 27 29 30 27 25 24 23 23 22 21 20 19 20 22 20 16 14 14 14 16 19 19 19 19 18 19 19 18 17 16 16 15 15 15 14
22 24 24 24 23 23 24 25 26 27 27 26 26 26 24 22 21 20 20 22 24 22 20 18 17 17 17 19 19 19 19 18 19 19 17 16 17 16 15 17 18 17
14 19 22 24 23 22 22 21 20 21 24 26 28 27 24 23 22 21 22 23 22 21 21 20 18 19 20 21 22 22 20 19 20 19 15 15 17 15 13 16 18 15
4 8 11 13 16 20 22 21 19 19 21 24 26 26 24 23 24 23 23 23 22 21 21 20 19 19 20 20 21 21 20 19 20 19 17 17 18 14 10 12 13 13
4 3 2 2 4 9 13 16 17 18 20 21 22 23 23 23 25 25 22 20 20 21 21 21 21 20 20 21 21 20 19 18 18 19 20 20 19 15 12 12 11 11
Wind_Direction
200 202 194 191 192 187 189 194 189 187 195 198 200 200 197 200 200 196 203 214 214 211 212 215 215 212 213 217 210 205 208 197 197 236 237 221 234 245 256 254 246 257
198 199 196 195 200 200 194 190 189 197 200 191 194 204 197 202 208 199 201 211 212 212 214 212 214 215 208 211 217 213 218 214 197 222 253 235 226 242 248 249 252 257
200 203 201 200 207 206 196 196 198 198 203 197 199 211 201 202 213 208 206 208 203 209 218 214 211 215 208 208 217 212 219 231 210 205 251 246 231 241 251 252 254 261
204 205 205 206 212 209 197 205 211 198 197 203 204 208 201 198 210 213 213 210 199 200 214 217 212 213 215 215 215 211 218 235 222 208 229 243 238 235 245 255 252 256
209 207 206 207 208 208 203 208 217 206 200 204 203 205 205 199 202 209 215 214 207 205 212 218 214 212 220 220 215 217 222 229 232 227 228 234 240 243 248 256 251 251
211 210 209 209 206 207 207 206 213 211 205 205 202 205 212 209 204 204 210 212 210 210 210 216 215 208 214 221 220 222 221 219 226 235 238 232 230 236 243 252 256 250
211 212 211 212 211 211 210 208 210 208 206 210 208 203 206 211 208 204 207 209 207 208 209 216 219 213 214 222 223 221 221 222 224 230 238 236 228 227 227 238 254 253
211 213 212 214 214 215 215 212 212 210 206 209 210 205 203 207 208 206 209 209 206 209 208 211 225 227 220 218 223 225 221 218 228 238 242 238 233 235 231 231 246 252
213 214 215 216 215 217 219 218 217 215 212 210 209 209 207 207 208 206 211 212 208 212 211 209 225 231 217 210 221 231 223 209 220 242 246 237 235 241 240 236 243 250
215 216 218 220 220 220 221 221 220 218 217 216 214 214 212 211 210 205 215 223 213 213 221 218 223 228 218 213 220 228 224 208 207 222 229 229 228 231 234 236 238 244
217 219 221 221 222 223 223 224 222 219 219 219 217 218 215 214 214 206 217 231 220 211 224 226 223 226 222 216 219 225 225 217 216 222 225 226 227 227 230 234 237 240
221 220 224 224 223 224 224 225 223 220 219 219 219 220 217 216 218 212 217 231 226 211 219 229 229 228 227 221 217 221 224 221 222 228 229 229 230 233 236 238 240 243
226 221 222 225 225 226 225 225 225 222 221 221 219 220 220 219 219 218 218 227 229 218 215 227 231 226 228 228 218 216 221 220 219 225 229 231 233 233 237 239 241 244
230 225 222 222 223 225 227 226 226 225 223 223 221 220 222 222 221 221 220 223 228 225 218 224 232 229 227 230 222 215 219 220 219 222 225 230 235 234 234 237 239 239
226 226 224 222 221 221 223 224 226 227 224 223 223 222 222 223 223 224 224 223 226 227 223 222 230 232 227 227 226 220 220 223 224 225 228 230 234 236 236 237 240 240
225 228 228 227 225 224 224 222 223 226 226 224 223 223 222 223 224 223 225 226 226 228 228 225 229 235 233 231 231 224 217 222 227 228 231 231 233 237 238 238 241 243
230 232 231 229 228 227 227 226 224 223 224 225 224 223 223 223 224 224 225 228 228 229 232 231 231 235 237 238 239 232 219 217 224 229 232 233 234 236 238 241 244 246
239 240 234 228 226 226 227 228 227 225 223 224 225 225 226 225 224 224 225 226 230 232 234 237 236 234 236 241 246 246 235 224 223 231 237 238 239 239 240 241 243 246
242 244 242 235 229 228 229 229 229 228 225 223 222 223 226 227 227 228 226 226 229 231 234 241 240 233 231 236 244 250 247 235 228 232 239 240 239 241 243 244 243 245
239 239 240 239 233 229 229 229 227 226 226 225 223 222 222 223 225 227 228 228 229 231 236 243 244 236 229 231 236 244 249 243 235 235 240 242 242 242 242 242 241 242
237 235 236 237 233 230 232 234 231 228 228 229 229 228 225 225 225 226 227 229 229 228 230 235 238 234 228 229 233 240 247 245 239 240 242 243 244 245 245 244 243 244
236 234 234 235 233 232 234 238 237 234 233 236 237 236 233 231 230 226 223 225 228 227 225 228 232 229 226 228 232 239 245 244 241 243 245 245 244 247 251 249 243 240
240 237 236 234 232 233 235 237 239 237 237 239 241 240 237 236 234 230 226 226 229 229 229 232 235 235 236 236 236 241 245 243 240 241 246 248 244 243 246 244 237 235
242 240 239 236 230 229 230 230 232 234 236 238 240 238 237 237 237 235 232 230 229 230 232 234 233 235 241 243 243 245 246 242 240 239 240 244 241 236 241 243 236 237
205 223 232 236 229 225 227 227 225 226 231 235 237 236 235 238 240 238 234 232 230 228 227 229 230 233 240 243 244 246 245 243 242 238 234 239 240 237 249 255 241 235
103 139 154 169 193 208 223 228 227 229 235 240 243 240 235 236 240 240 235 231 229 225 224 227 230 234 242 246 245 244 243 242 241 236 233 236 237 234 244 255 245 236